Time,TemperatureF,DewpointF,PressureIn,WindDirection,WindDirectionDegrees,WindSpeedMPH,WindSpeedGustMPH,Humidity,HourlyPrecipIn,Conditions,Clouds,dailyrainin,SoftwareType,DateUTC
2013-08-12 00:00:00,72.9,46.5,29.97,WNW,285,6.0,14.0,39,0.00,,---,0.00,VWS V14.01,2013-08-12 07:00:00,
2013-08-12 00:03:00,72.9,46.5,29.97,WSW,252,8.0,16.0,39,0.00,,---,0.00,VWS V14.01,2013-08-12 07:03:00,
2013-08-12 00:08:00,72.9,45.8,29.97,WNW,284,6.0,16.0,38,0.00,,---,0.00,VWS V14.01,2013-08-12 07:08:00,
2013-08-12 00:13:00,73.3,45.5,29.97,West,271,5.0,17.0,37,0.00,,---,0.00,VWS V14.01,2013-08-12 07:13:00,
2013-08-12 00:18:00,73.3,45.5,29.97,West,276,10.0,17.0,37,0.00,,---,0.00,VWS V14.01,2013-08-12 07:18:00,
2013-08-12 00:23:00,73.2,46.1,29.97,West,267,8.0,17.0,38,0.00,,---,0.00,VWS V14.01,2013-08-12 07:23:00,
2013-08-12 00:28:00,73.1,46.0,29.97,WSW,249,6.0,9.0,38,0.00,,---,0.00,VWS V14.01,2013-08-12 07:28:00,
2013-08-12 00:30:00,73.1,46.0,29.98,WNW,294,6.0,17.0,38,0.00,,---,0.00,VWS V14.01,2013-08-12 07:30:00,
2013-08-12 00:33:00,73.1,46.0,29.97,SSW,203,3.0,13.0,38,0.00,,---,0.00,VWS V14.01,2013-08-12 07:33:00,
2013-08-12 00:38:00,72.9,45.8,29.97,West,266,6.0,13.0,38,0.00,,---,0.00,VWS V14.01,2013-08-12 07:38:00,
2013-08-12 00:43:00,72.8,45.7,29.97,WSW,243,7.0,13.0,38,0.00,,---,0.00,VWS V14.01,2013-08-12 07:43:00,
2013-08-12 00:48:00,72.7,45.7,29.97,West,276,10.0,13.0,38,0.00,,---,0.00,VWS V14.01,2013-08-12 07:48:00,
2013-08-12 00:53:00,72.7,45.7,29.97,West,276,9.0,15.0,38,0.00,,---,0.00,VWS V14.01,2013-08-12 07:53:00,
2013-08-12 00:58:00,72.9,45.1,29.97,West,274,5.0,9.0,37,0.00,,---,0.00,VWS V14.01,2013-08-12 07:58:00,
2013-08-12 01:00:00,72.9,45.1,29.97,SW,220,9.0,15.0,37,0.00,,---,0.00,VWS V14.01,2013-08-12 08:00:00,
2013-08-12 01:03:00,72.7,45.7,29.97,WNW,283,5.0,13.0,38,0.00,,---,0.00,VWS V14.01,2013-08-12 08:03:00,
2013-08-12 01:08:00,72.4,45.4,29.97,West,271,12.0,13.0,38,0.00,,---,0.00,VWS V14.01,2013-08-12 08:08:00,
2013-08-12 01:13:00,72.3,45.3,29.96,WSW,243,3.0,14.0,38,0.00,,---,0.00,VWS V14.01,2013-08-12 08:13:00,
2013-08-12 01:18:00,72.3,45.3,29.96,West,273,6.0,14.0,38,0.00,,---,0.00,VWS V14.01,2013-08-12 08:18:00,
2013-08-12 01:23:00,72.5,45.5,29.96,SW,226,10.0,14.0,38,0.00,,---,0.00,VWS V14.01,2013-08-12 08:23:00,
2013-08-12 01:28:00,72.4,45.4,29.96,West,264,10.0,10.0,38,0.00,,---,0.00,VWS V14.01,2013-08-12 08:28:00,
2013-08-12 01:30:00,72.4,45.4,29.96,WSW,242,5.0,14.0,38,0.00,,---,0.00,VWS V14.01,2013-08-12 08:30:00,
2013-08-12 01:33:00,72.2,45.9,29.96,West,278,9.0,13.0,39,0.00,,---,0.00,VWS V14.01,2013-08-12 08:33:00,
2013-08-12 01:38:00,72.2,45.9,29.96,SSW,205,5.0,13.0,39,0.00,,---,0.00,VWS V14.01,2013-08-12 08:38:00,
2013-08-12 01:43:00,72.1,45.8,29.96,WSW,257,8.0,13.0,39,0.00,,---,0.00,VWS V14.01,2013-08-12 08:43:00,
2013-08-12 01:48:00,71.9,46.3,29.96,West,260,3.0,13.0,40,0.00,,---,0.00,VWS V14.01,2013-08-12 08:48:00,
2013-08-12 01:53:00,71.8,46.9,29.96,West,273,5.0,13.0,41,0.00,,---,0.00,VWS V14.01,2013-08-12 08:53:00,
2013-08-12 01:58:00,71.8,46.9,29.96,WSW,253,5.0,9.0,41,0.00,,---,0.00,VWS V14.01,2013-08-12 08:58:00,
2013-08-12 02:00:00,71.9,47.0,29.96,WNW,290,5.0,13.0,41,0.00,,---,0.00,VWS V14.01,2013-08-12 09:00:00,
2013-08-12 02:03:00,71.6,46.7,29.96,West,269,7.0,12.0,41,0.00,,---,0.00,VWS V14.01,2013-08-12 09:03:00,
2013-08-12 02:08:00,71.3,46.4,29.96,SW,218,5.0,12.0,41,0.00,,---,0.00,VWS V14.01,2013-08-12 09:08:00,
2013-08-12 02:13:00,71.3,46.4,29.96,West,278,8.0,12.0,41,0.00,,---,0.00,VWS V14.01,2013-08-12 09:13:00,
2013-08-12 02:18:00,71.5,46.6,29.96,WNW,294,4.0,12.0,41,0.00,,---,0.00,VWS V14.01,2013-08-12 09:18:00,
2013-08-12 02:23:00,71.5,47.2,29.96,West,260,4.0,12.0,42,0.00,,---,0.00,VWS V14.01,2013-08-12 09:23:00,
2013-08-12 02:28:00,71.4,47.1,29.95,WNW,286,9.0,11.0,42,0.00,,---,0.00,VWS V14.01,2013-08-12 09:28:00,
2013-08-12 02:30:00,71.5,47.2,29.95,West,266,6.0,12.0,42,0.00,,---,0.00,VWS V14.01,2013-08-12 09:30:00,
2013-08-12 02:33:00,71.4,47.1,29.95,West,264,6.0,12.0,42,0.00,,---,0.00,VWS V14.01,2013-08-12 09:33:00,
2013-08-12 02:38:00,71.2,47.6,29.95,WSW,249,3.0,12.0,43,0.00,,---,0.00,VWS V14.01,2013-08-12 09:38:00,
2013-08-12 02:43:00,70.9,47.3,29.95,WSW,257,8.0,12.0,43,0.00,,---,0.00,VWS V14.01,2013-08-12 09:43:00,
2013-08-12 02:48:00,71.1,47.5,29.95,SSW,198,5.0,13.0,43,0.00,,---,0.00,VWS V14.01,2013-08-12 09:48:00,
2013-08-12 02:53:00,70.8,47.2,29.95,West,281,8.0,13.0,43,0.00,,---,0.00,VWS V14.01,2013-08-12 09:53:00,
2013-08-12 02:58:00,70.7,47.7,29.95,WSW,255,5.0,7.0,44,0.00,,---,0.00,VWS V14.01,2013-08-12 09:58:00,
2013-08-12 03:00:00,70.7,47.7,29.95,West,263,2.0,13.0,44,0.00,,---,0.00,VWS V14.01,2013-08-12 10:00:00,
2013-08-12 03:03:00,70.4,47.5,29.95,West,259,5.0,9.0,44,0.00,,---,0.00,VWS V14.01,2013-08-12 10:03:00,
2013-08-12 03:08:00,70.3,47.4,29.95,NW,317,3.0,11.0,44,0.00,,---,0.00,VWS V14.01,2013-08-12 10:08:00,
2013-08-12 03:13:00,69.9,47.0,29.95,West,267,5.0,12.0,44,0.00,,---,0.00,VWS V14.01,2013-08-12 10:13:00,
2013-08-12 03:18:00,69.6,47.3,29.95,West,262,7.0,12.0,45,0.00,,---,0.00,VWS V14.01,2013-08-12 10:18:00,
2013-08-12 03:23:00,69.4,46.6,29.95,SSW,205,6.0,12.0,44,0.00,,---,0.00,VWS V14.01,2013-08-12 10:23:00,
2013-08-12 03:28:00,69.1,46.9,29.95,West,266,5.0,9.0,45,0.00,,---,0.00,VWS V14.01,2013-08-12 10:28:00,
2013-08-12 03:30:00,69.1,46.9,29.95,WSW,242,5.0,12.0,45,0.00,,---,0.00,VWS V14.01,2013-08-12 10:30:00,
2013-08-12 03:33:00,69.0,47.4,29.95,WSW,240,5.0,11.0,46,0.00,,---,0.00,VWS V14.01,2013-08-12 10:33:00,
2013-08-12 03:38:00,68.7,47.1,29.95,WNW,294,6.0,11.0,46,0.00,,---,0.00,VWS V14.01,2013-08-12 10:38:00,
2013-08-12 03:43:00,68.6,47.6,29.94,SW,214,5.0,11.0,47,0.00,,---,0.00,VWS V14.01,2013-08-12 10:43:00,
2013-08-12 03:48:00,68.5,47.5,29.95,WNW,300,7.0,12.0,47,0.00,,---,0.00,VWS V14.01,2013-08-12 10:48:00,
2013-08-12 03:53:00,68.5,47.5,29.95,WSW,239,4.0,13.0,47,0.00,,---,0.00,VWS V14.01,2013-08-12 10:53:00,
2013-08-12 03:58:00,68.4,47.4,29.95,WSW,255,7.0,13.0,47,0.00,,---,0.00,VWS V14.01,2013-08-12 10:58:00,
2013-08-12 04:00:00,68.4,47.4,29.95,WNW,283,5.0,14.0,47,0.00,,---,0.00,VWS V14.01,2013-08-12 11:00:00,
2013-08-12 04:03:00,68.4,47.4,29.95,West,263,3.0,13.0,47,0.00,,---,0.00,VWS V14.01,2013-08-12 11:03:00,
2013-08-12 04:08:00,68.1,47.7,29.95,WNW,290,8.0,13.0,48,0.00,,---,0.00,VWS V14.01,2013-08-12 11:08:00,
2013-08-12 04:13:00,68.0,47.6,29.95,West,271,5.0,13.0,48,0.00,,---,0.00,VWS V14.01,2013-08-12 11:13:00,
2013-08-12 04:18:00,68.0,47.6,29.95,SW,224,6.0,13.0,48,0.00,,---,0.00,VWS V14.01,2013-08-12 11:18:00,
2013-08-12 04:23:00,67.9,47.5,29.95,West,276,4.0,13.0,48,0.00,,---,0.00,VWS V14.01,2013-08-12 11:23:00,
2013-08-12 04:28:00,67.7,47.9,29.95,WSW,252,7.0,9.0,49,0.00,,---,0.00,VWS V14.01,2013-08-12 11:28:00,
2013-08-12 04:30:00,67.7,47.9,29.95,WSW,245,2.0,13.0,49,0.00,,---,0.00,VWS V14.01,2013-08-12 11:30:00,
2013-08-12 04:33:00,67.6,47.8,29.95,SW,231,14.0,14.0,49,0.00,,---,0.00,VWS V14.01,2013-08-12 11:33:00,
2013-08-12 04:38:00,67.5,47.7,29.95,WNW,288,3.0,14.0,49,0.00,,---,0.00,VWS V14.01,2013-08-12 11:38:00,
2013-08-12 04:43:00,67.4,48.1,29.95,WNW,283,2.0,14.0,50,0.00,,---,0.00,VWS V14.01,2013-08-12 11:43:00,
2013-08-12 04:48:00,67.1,47.9,29.95,SW,229,6.0,14.0,50,0.00,,---,0.00,VWS V14.01,2013-08-12 11:48:00,
2013-08-12 04:53:00,67.1,47.9,29.95,WSW,253,9.0,14.0,50,0.00,,---,0.00,VWS V14.01,2013-08-12 11:53:00,
2013-08-12 04:58:00,67.0,48.3,29.95,WSW,238,4.0,9.0,51,0.00,,---,0.00,VWS V14.01,2013-08-12 11:58:00,
2013-08-12 05:00:00,67.0,48.3,29.95,WNW,291,6.0,14.0,51,0.00,,---,0.00,VWS V14.01,2013-08-12 12:00:00,
2013-08-12 05:03:00,66.9,48.2,29.95,WSW,242,9.0,10.0,51,0.00,,---,0.00,VWS V14.01,2013-08-12 12:03:00,
2013-08-12 05:08:00,66.8,48.1,29.95,West,276,7.0,11.0,51,0.00,,---,0.00,VWS V14.01,2013-08-12 12:08:00,
2013-08-12 05:13:00,66.8,48.1,29.95,West,262,6.0,11.0,51,0.00,,---,0.00,VWS V14.01,2013-08-12 12:13:00,
2013-08-12 05:18:00,66.8,48.1,29.95,West,278,9.0,11.0,51,0.00,,---,0.00,VWS V14.01,2013-08-12 12:18:00,
2013-08-12 05:23:00,66.7,48.0,29.96,SW,226,4.0,11.0,51,0.00,,---,0.00,VWS V14.01,2013-08-12 12:23:00,
2013-08-12 05:28:00,66.5,48.3,29.96,WSW,244,8.0,8.0,52,0.00,,---,0.00,VWS V14.01,2013-08-12 12:28:00,
2013-08-12 05:30:00,66.5,48.3,29.96,WSW,249,7.0,11.0,52,0.00,,---,0.00,VWS V14.01,2013-08-12 12:30:00,
2013-08-12 05:33:00,66.6,47.9,29.96,NW,308,4.0,11.0,51,0.00,,---,0.00,VWS V14.01,2013-08-12 12:33:00,
2013-08-12 05:38:00,66.6,47.9,29.96,WNW,296,5.0,11.0,51,0.00,,---,0.00,VWS V14.01,2013-08-12 12:38:00,
2013-08-12 05:43:00,66.5,47.8,29.96,SW,215,5.0,11.0,51,0.00,,---,0.00,VWS V14.01,2013-08-12 12:43:00,
2013-08-12 05:48:00,66.7,47.5,29.96,WSW,255,10.0,11.0,50,0.00,,---,0.00,VWS V14.01,2013-08-12 12:48:00,
2013-08-12 05:53:00,66.6,47.9,29.97,WSW,238,5.0,11.0,51,0.00,,---,0.00,VWS V14.01,2013-08-12 12:53:00,
2013-08-12 05:58:00,66.5,47.8,29.97,SW,236,6.0,8.0,51,0.00,,---,0.00,VWS V14.01,2013-08-12 12:58:00,
2013-08-12 06:00:00,66.5,47.8,29.96,SW,235,7.0,11.0,51,0.00,,---,0.00,VWS V14.01,2013-08-12 13:00:00,
2013-08-12 06:03:00,66.7,47.5,29.96,WSW,238,4.0,11.0,50,0.00,,---,0.00,VWS V14.01,2013-08-12 13:03:00,
2013-08-12 06:08:00,66.7,47.5,29.97,West,279,5.0,11.0,50,0.00,,---,0.00,VWS V14.01,2013-08-12 13:08:00,
2013-08-12 06:13:00,66.8,47.6,29.97,SW,228,5.0,11.0,50,0.00,,---,0.00,VWS V14.01,2013-08-12 13:13:00,
2013-08-12 06:18:00,66.8,47.6,29.97,WSW,252,7.0,11.0,50,0.00,,---,0.00,VWS V14.01,2013-08-12 13:18:00,
2013-08-12 06:23:00,66.8,47.6,29.97,WSW,252,3.0,11.0,50,0.00,,---,0.00,VWS V14.01,2013-08-12 13:23:00,
2013-08-12 06:28:00,66.9,47.7,29.97,West,273,5.0,7.0,50,0.00,,---,0.00,VWS V14.01,2013-08-12 13:28:00,
2013-08-12 06:30:00,66.9,47.7,29.97,West,274,5.0,11.0,50,0.00,,---,0.00,VWS V14.01,2013-08-12 13:30:00,
2013-08-12 06:33:00,66.9,47.7,29.97,West,260,3.0,8.0,50,0.00,,---,0.00,VWS V14.01,2013-08-12 13:33:00,
2013-08-12 06:38:00,67.0,47.8,29.97,West,276,6.0,10.0,50,0.00,,---,0.00,VWS V14.01,2013-08-12 13:38:00,
2013-08-12 06:43:00,67.4,47.6,29.97,West,281,5.0,10.0,49,0.00,,---,0.00,VWS V14.01,2013-08-12 13:43:00,
2013-08-12 06:48:00,67.8,48.0,29.97,WSW,252,4.0,10.0,49,0.00,,---,0.00,VWS V14.01,2013-08-12 13:48:00,
2013-08-12 06:53:00,68.2,47.8,29.97,SW,232,5.0,10.0,48,0.00,,---,0.00,VWS V14.01,2013-08-12 13:53:00,
2013-08-12 06:58:00,68.7,47.7,29.97,WSW,254,4.0,6.0,47,0.00,,---,0.00,VWS V14.01,2013-08-12 13:58:00,
2013-08-12 07:00:00,68.6,48.2,29.97,West,272,4.0,10.0,48,0.00,,---,0.00,VWS V14.01,2013-08-12 14:00:00,
2013-08-12 07:03:00,69.1,48.6,29.97,WNW,288,4.0,9.0,48,0.00,,---,0.00,VWS V14.01,2013-08-12 14:03:00,
2013-08-12 07:08:00,69.5,48.4,29.97,WSW,252,6.0,9.0,47,0.00,,---,0.00,VWS V14.01,2013-08-12 14:08:00,
2013-08-12 07:13:00,69.9,48.2,29.97,West,266,3.0,9.0,46,0.00,,---,0.00,VWS V14.01,2013-08-12 14:13:00,
2013-08-12 07:18:00,70.3,48.6,29.97,WSW,245,11.0,11.0,46,0.00,,---,0.00,VWS V14.01,2013-08-12 14:18:00,
2013-08-12 07:23:00,70.8,49.0,29.97,West,279,6.0,11.0,46,0.00,,---,0.00,VWS V14.01,2013-08-12 14:23:00,
2013-08-12 07:28:00,71.2,48.8,29.97,WSW,255,4.0,4.0,45,0.00,,---,0.00,VWS V14.01,2013-08-12 14:28:00,
2013-08-12 07:30:00,71.1,48.7,29.97,West,270,1.0,11.0,45,0.00,,---,0.00,VWS V14.01,2013-08-12 14:30:00,
2013-08-12 07:33:00,71.6,49.2,29.98,WSW,248,3.0,10.0,45,0.00,,---,0.00,VWS V14.01,2013-08-12 14:33:00,
2013-08-12 07:38:00,72.0,48.9,29.98,SSW,193,3.0,10.0,44,0.00,,---,0.00,VWS V14.01,2013-08-12 14:38:00,
2013-08-12 07:43:00,72.5,49.4,29.98,WSW,250,8.0,10.0,44,0.00,,---,0.00,VWS V14.01,2013-08-12 14:43:00,
2013-08-12 07:48:00,73.0,49.2,29.98,West,281,3.0,10.0,43,0.00,,---,0.00,VWS V14.01,2013-08-12 14:48:00,
2013-08-12 07:53:00,73.4,48.9,29.98,West,277,3.0,10.0,42,0.00,,---,0.00,VWS V14.01,2013-08-12 14:53:00,
2013-08-12 07:58:00,74.0,48.8,29.98,West,281,4.0,4.0,41,0.00,,---,0.00,VWS V14.01,2013-08-12 14:58:00,
2013-08-12 08:00:00,73.9,49.4,29.98,SW,226,2.0,10.0,42,0.00,,---,0.00,VWS V14.01,2013-08-12 15:00:00,
2013-08-12 08:03:00,74.5,48.6,29.98,WSW,240,3.0,7.0,40,0.00,,---,0.00,VWS V14.01,2013-08-12 15:03:00,
2013-08-12 08:08:00,74.9,49.0,29.98,West,273,4.0,8.0,40,0.00,,---,0.00,VWS V14.01,2013-08-12 15:08:00,
2013-08-12 08:13:00,75.3,48.7,29.98,SSW,206,2.0,8.0,39,0.00,,---,0.00,VWS V14.01,2013-08-12 15:13:00,
2013-08-12 08:18:00,76.1,48.0,29.98,SSW,210,0.0,8.0,37,0.00,,---,0.00,VWS V14.01,2013-08-12 15:18:00,
2013-08-12 08:23:00,76.8,45.5,29.99,WNW,293,4.0,8.0,33,0.00,,---,0.00,VWS V14.01,2013-08-12 15:23:00,
2013-08-12 08:28:00,77.5,46.2,29.99,WSW,255,2.0,2.0,33,0.00,,---,0.00,VWS V14.01,2013-08-12 15:28:00,
2013-08-12 08:30:00,77.4,46.1,29.98,WNW,289,2.0,8.0,33,0.00,,---,0.00,VWS V14.01,2013-08-12 15:30:00,
2013-08-12 08:33:00,78.1,45.0,29.99,WNW,293,2.0,4.0,31,0.00,,---,0.00,VWS V14.01,2013-08-12 15:33:00,
2013-08-12 08:38:00,78.8,47.3,29.99,West,280,3.0,5.0,33,0.00,,---,0.00,VWS V14.01,2013-08-12 15:38:00,
2013-08-12 08:43:00,79.3,45.2,29.99,NW,305,2.0,7.0,30,0.00,,---,0.00,VWS V14.01,2013-08-12 15:43:00,
2013-08-12 08:48:00,79.6,44.6,29.99,West,259,5.0,7.0,29,0.00,,---,0.00,VWS V14.01,2013-08-12 15:48:00,
2013-08-12 08:53:00,79.9,45.7,29.99,West,266,1.0,7.0,30,0.00,,---,0.00,VWS V14.01,2013-08-12 15:53:00,
2013-08-12 08:58:00,80.8,46.5,29.99,West,273,3.0,4.0,30,0.00,,---,0.00,VWS V14.01,2013-08-12 15:58:00,
2013-08-12 09:00:00,80.8,46.5,29.99,West,278,4.0,7.0,30,0.00,,---,0.00,VWS V14.01,2013-08-12 16:00:00,
2013-08-12 09:03:00,81.2,46.8,29.99,West,281,1.0,5.0,30,0.00,,---,0.00,VWS V14.01,2013-08-12 16:03:00,
2013-08-12 09:08:00,81.6,46.3,29.99,WNW,283,2.0,6.0,29,0.00,,---,0.00,VWS V14.01,2013-08-12 16:08:00,
2013-08-12 09:13:00,81.5,45.3,29.99,SW,229,2.0,6.0,28,0.00,,---,0.00,VWS V14.01,2013-08-12 16:13:00,
2013-08-12 09:18:00,81.6,45.4,29.99,WSW,248,1.0,6.0,28,0.00,,---,0.00,VWS V14.01,2013-08-12 16:18:00,
2013-08-12 09:23:00,82.5,45.2,29.99,WSW,240,3.0,6.0,27,0.00,,---,0.00,VWS V14.01,2013-08-12 16:23:00,
2013-08-12 09:28:00,82.9,44.5,30.00,West,274,3.0,6.0,26,0.00,,---,0.00,VWS V14.01,2013-08-12 16:28:00,
2013-08-12 09:30:00,82.9,44.5,30.00,West,269,3.0,6.0,26,0.00,,---,0.00,VWS V14.01,2013-08-12 16:30:00,
2013-08-12 09:33:00,82.9,45.5,30.00,SW,220,2.0,6.0,27,0.00,,---,0.00,VWS V14.01,2013-08-12 16:33:00,
2013-08-12 09:38:00,83.2,44.8,30.00,West,262,2.0,6.0,26,0.00,,---,0.00,VWS V14.01,2013-08-12 16:38:00,
2013-08-12 09:43:00,83.7,44.2,30.00,WSW,255,1.0,6.0,25,0.00,,---,0.00,VWS V14.01,2013-08-12 16:43:00,
2013-08-12 09:48:00,84.5,44.9,30.00,West,266,3.0,6.0,25,0.00,,---,0.00,VWS V14.01,2013-08-12 16:48:00,
2013-08-12 09:53:00,85.0,43.1,30.00,South,188,3.0,6.0,23,0.00,,---,0.00,VWS V14.01,2013-08-12 16:53:00,
2013-08-12 09:58:00,85.4,45.6,30.00,SSW,211,4.0,5.0,25,0.00,,---,0.00,VWS V14.01,2013-08-12 16:58:00,
2013-08-12 10:00:00,85.3,45.5,30.00,SSW,210,1.0,7.0,25,0.00,,---,0.00,VWS V14.01,2013-08-12 17:00:00,
2013-08-12 10:03:00,85.9,45.0,30.00,West,269,4.0,8.0,24,0.00,,---,0.00,VWS V14.01,2013-08-12 17:03:00,
2013-08-12 10:08:00,86.3,44.2,30.00,NW,318,1.0,8.0,23,0.00,,---,0.00,VWS V14.01,2013-08-12 17:08:00,
2013-08-12 10:13:00,86.2,44.1,30.00,SW,220,0.0,8.0,23,0.00,,---,0.00,VWS V14.01,2013-08-12 17:13:00,
2013-08-12 10:18:00,86.1,42.8,30.00,WSW,240,7.0,8.0,22,0.00,,---,0.00,VWS V14.01,2013-08-12 17:18:00,
2013-08-12 10:23:00,86.2,44.1,30.00,WNW,296,3.0,8.0,23,0.00,,---,0.00,VWS V14.01,2013-08-12 17:23:00,
2013-08-12 10:28:00,85.9,41.5,30.00,South,184,2.0,2.0,21,0.00,,---,0.00,VWS V14.01,2013-08-12 17:28:00,
2013-08-12 10:30:00,85.9,41.5,30.00,South,190,2.0,8.0,21,0.00,,---,0.00,VWS V14.01,2013-08-12 17:30:00,
2013-08-12 10:33:00,86.4,43.1,30.00,SW,218,2.0,7.0,22,0.00,,---,0.00,VWS V14.01,2013-08-12 17:33:00,
2013-08-12 10:38:00,87.2,44.9,30.00,WSW,257,1.0,7.0,23,0.00,,---,0.00,VWS V14.01,2013-08-12 17:38:00,
2013-08-12 10:43:00,87.4,45.1,30.00,South,169,1.0,7.0,23,0.00,,---,0.00,VWS V14.01,2013-08-12 17:43:00,
2013-08-12 10:48:00,87.7,44.2,30.00,West,280,4.0,7.0,22,0.00,,---,0.00,VWS V14.01,2013-08-12 17:48:00,
2013-08-12 10:53:00,87.7,43.0,30.00,West,278,5.0,8.0,21,0.00,,---,0.00,VWS V14.01,2013-08-12 17:53:00,
2013-08-12 10:58:00,87.7,43.0,30.00,WNW,294,3.0,4.0,21,0.00,,---,0.00,VWS V14.01,2013-08-12 17:58:00,
2013-08-12 11:00:00,87.8,43.0,30.00,West,271,4.0,8.0,21,0.00,,---,0.00,VWS V14.01,2013-08-12 18:00:00,
2013-08-12 11:03:00,87.7,43.0,30.00,WNW,287,2.0,7.0,21,0.00,,---,0.00,VWS V14.01,2013-08-12 18:03:00,
2013-08-12 11:08:00,88.1,43.3,30.00,West,274,2.0,9.0,21,0.00,,---,0.00,VWS V14.01,2013-08-12 18:08:00,
2013-08-12 11:13:00,88.2,42.1,30.00,NW,311,6.0,9.0,20,0.00,,---,0.00,VWS V14.01,2013-08-12 18:13:00,
2013-08-12 11:18:00,88.4,40.9,30.00,WSW,256,4.0,9.0,19,0.00,,---,0.00,VWS V14.01,2013-08-12 18:18:00,
2013-08-12 11:23:00,89.2,44.2,29.99,WNW,297,4.0,9.0,21,0.00,,---,0.00,VWS V14.01,2013-08-12 18:23:00,
2013-08-12 11:28:00,89.6,40.5,29.99,West,263,1.0,2.0,18,0.00,,---,0.00,VWS V14.01,2013-08-12 18:28:00,
2013-08-12 11:30:00,89.6,41.9,29.99,SSE,162,2.0,9.0,19,0.00,,---,0.00,VWS V14.01,2013-08-12 18:30:00,
2013-08-12 11:33:00,89.6,39.1,29.99,WNW,302,2.0,7.0,17,0.00,,---,0.00,VWS V14.01,2013-08-12 18:33:00,
2013-08-12 11:38:00,89.7,44.6,29.99,West,274,3.0,7.0,21,0.00,,---,0.00,VWS V14.01,2013-08-12 18:38:00,
2013-08-12 11:43:00,89.8,42.1,29.99,WNW,302,5.0,7.0,19,0.00,,---,0.00,VWS V14.01,2013-08-12 18:43:00,
2013-08-12 11:48:00,89.2,41.6,29.99,West,276,3.0,8.0,19,0.00,,---,0.00,VWS V14.01,2013-08-12 18:48:00,
2013-08-12 11:53:00,89.8,42.1,29.99,West,262,2.0,8.0,19,0.00,,---,0.00,VWS V14.01,2013-08-12 18:53:00,
2013-08-12 11:58:00,90.4,41.2,29.99,West,264,6.0,8.0,18,0.00,,---,0.00,VWS V14.01,2013-08-12 18:58:00,
2013-08-12 12:00:00,90.3,41.1,29.99,West,269,3.0,8.0,18,0.00,,---,0.00,VWS V14.01,2013-08-12 19:00:00,
2013-08-12 12:03:00,89.9,39.3,29.99,NW,305,4.0,10.0,17,0.00,,---,0.00,VWS V14.01,2013-08-12 19:03:00,
2013-08-12 12:08:00,90.3,39.6,29.99,NW,305,3.0,10.0,17,0.00,,---,0.00,VWS V14.01,2013-08-12 19:08:00,
2013-08-12 12:13:00,90.8,41.5,29.99,SW,232,4.0,10.0,18,0.00,,---,0.00,VWS V14.01,2013-08-12 19:13:00,
2013-08-12 12:18:00,90.8,40.0,29.99,WNW,300,7.0,10.0,17,0.00,,---,0.00,VWS V14.01,2013-08-12 19:18:00,
2013-08-12 12:23:00,91.2,40.3,29.98,WSW,248,8.0,10.0,17,0.00,,---,0.00,VWS V14.01,2013-08-12 19:23:00,
2013-08-12 12:28:00,91.4,39.0,29.99,WSW,256,5.0,6.0,16,0.00,,---,0.00,VWS V14.01,2013-08-12 19:28:00,
2013-08-12 12:30:00,91.3,38.9,29.98,SSW,200,4.0,10.0,16,0.00,,---,0.00,VWS V14.01,2013-08-12 19:30:00,
2013-08-12 12:33:00,91.4,39.0,29.98,West,273,4.0,9.0,16,0.00,,---,0.00,VWS V14.01,2013-08-12 19:33:00,
2013-08-12 12:38:00,92.2,41.2,29.98,WNW,299,9.0,10.0,17,0.00,,---,0.00,VWS V14.01,2013-08-12 19:38:00,
2013-08-12 12:43:00,91.8,37.6,29.98,NW,325,4.0,10.0,15,0.00,,---,0.00,VWS V14.01,2013-08-12 19:43:00,
2013-08-12 12:48:00,91.4,39.0,29.98,West,271,2.0,14.0,16,0.00,,---,0.00,VWS V14.01,2013-08-12 19:48:00,
2013-08-12 12:53:00,91.8,39.3,29.98,NW,315,7.0,14.0,16,0.00,,---,0.00,VWS V14.01,2013-08-12 19:53:00,
2013-08-12 12:58:00,92.2,39.6,29.98,NW,309,5.0,6.0,16,0.00,,---,0.00,VWS V14.01,2013-08-12 19:58:00,
2013-08-12 13:00:00,92.2,39.6,29.98,WNW,302,6.0,14.0,16,0.00,,---,0.00,VWS V14.01,2013-08-12 20:00:00,
2013-08-12 13:03:00,92.6,39.9,29.98,West,277,5.0,10.0,16,0.00,,---,0.00,VWS V14.01,2013-08-12 20:03:00,
2013-08-12 13:08:00,92.4,36.3,29.97,WNW,288,8.0,10.0,14,0.00,,---,0.00,VWS V14.01,2013-08-12 20:08:00,
2013-08-12 13:13:00,92.7,36.6,29.97,WNW,285,3.0,10.0,14,0.00,,---,0.00,VWS V14.01,2013-08-12 20:13:00,
2013-08-12 13:18:00,93.3,37.0,29.97,NW,305,7.0,10.0,14,0.00,,---,0.00,VWS V14.01,2013-08-12 20:18:00,
2013-08-12 13:23:00,92.9,36.7,29.97,NW,319,3.0,10.0,14,0.00,,---,0.00,VWS V14.01,2013-08-12 20:23:00,
2013-08-12 13:28:00,92.9,40.2,29.97,WNW,287,7.0,7.0,16,0.00,,---,0.00,VWS V14.01,2013-08-12 20:28:00,
2013-08-12 13:30:00,92.8,40.1,29.97,West,273,6.0,11.0,16,0.00,,---,0.00,VWS V14.01,2013-08-12 20:30:00,
2013-08-12 13:33:00,92.6,36.5,29.97,West,274,5.0,10.0,14,0.00,,---,0.00,VWS V14.01,2013-08-12 20:33:00,
2013-08-12 13:38:00,93.1,40.3,29.97,West,277,5.0,13.0,16,0.00,,---,0.00,VWS V14.01,2013-08-12 20:38:00,
2013-08-12 13:43:00,93.4,37.1,29.97,NW,311,9.0,13.0,14,0.00,,---,0.00,VWS V14.01,2013-08-12 20:43:00,
2013-08-12 13:48:00,93.5,39.0,29.97,NW,319,5.0,13.0,15,0.00,,---,0.00,VWS V14.01,2013-08-12 20:48:00,
2013-08-12 13:53:00,93.9,41.0,29.97,West,281,4.0,13.0,16,0.00,,---,0.00,VWS V14.01,2013-08-12 20:53:00,
2013-08-12 13:58:00,93.6,39.0,29.97,West,274,8.0,8.0,15,0.00,,---,0.00,VWS V14.01,2013-08-12 20:58:00,
2013-08-12 14:00:00,93.7,37.4,29.97,SW,232,7.0,13.0,14,0.00,,---,0.00,VWS V14.01,2013-08-12 21:00:00,
2013-08-12 14:03:00,93.6,37.3,29.97,West,266,7.0,13.0,14,0.00,,---,0.00,VWS V14.01,2013-08-12 21:03:00,
2013-08-12 14:08:00,93.7,39.1,29.97,West,277,7.0,13.0,15,0.00,,---,0.00,VWS V14.01,2013-08-12 21:08:00,
2013-08-12 14:13:00,94.0,39.4,29.97,WNW,300,5.0,13.0,15,0.00,,---,0.00,VWS V14.01,2013-08-12 21:13:00,
2013-08-12 14:18:00,93.3,40.5,29.96,WNW,285,7.0,13.0,16,0.00,,---,0.00,VWS V14.01,2013-08-12 21:18:00,
2013-08-12 14:23:00,93.5,39.0,29.96,WNW,293,10.0,13.0,15,0.00,,---,0.00,VWS V14.01,2013-08-12 21:23:00,
2013-08-12 14:28:00,93.5,40.6,29.96,NW,313,11.0,11.0,16,0.00,,---,0.00,VWS V14.01,2013-08-12 21:28:00,
2013-08-12 14:30:00,93.6,40.7,29.96,WSW,252,7.0,13.0,16,0.00,,---,0.00,VWS V14.01,2013-08-12 21:30:00,
2013-08-12 14:33:00,92.5,36.4,29.96,NW,307,7.0,15.0,14,0.00,,---,0.00,VWS V14.01,2013-08-12 21:33:00,
2013-08-12 14:38:00,93.0,40.2,29.96,WSW,245,8.0,15.0,16,0.00,,---,0.00,VWS V14.01,2013-08-12 21:38:00,
2013-08-12 14:43:00,92.8,40.1,29.97,WSW,248,4.0,15.0,16,0.00,,---,0.00,VWS V14.01,2013-08-12 21:43:00,
2013-08-12 14:48:00,92.9,38.5,29.96,NW,305,7.0,15.0,15,0.00,,---,0.00,VWS V14.01,2013-08-12 21:48:00,
2013-08-12 14:53:00,92.5,38.2,29.96,West,264,8.0,15.0,15,0.00,,---,0.00,VWS V14.01,2013-08-12 21:53:00,
2013-08-12 14:58:00,92.8,36.7,29.96,WNW,296,10.0,13.0,14,0.00,,---,0.00,VWS V14.01,2013-08-12 21:58:00,
2013-08-12 15:00:00,92.8,38.4,29.96,West,280,11.0,15.0,15,0.00,,---,0.00,VWS V14.01,2013-08-12 22:00:00,
2013-08-12 15:03:00,92.8,38.4,29.96,West,273,4.0,13.0,15,0.00,,---,0.00,VWS V14.01,2013-08-12 22:03:00,
2013-08-12 15:08:00,92.9,36.7,29.96,NNW,328,11.0,13.0,14,0.00,,---,0.00,VWS V14.01,2013-08-12 22:08:00,
2013-08-12 15:13:00,92.8,36.7,29.96,WNW,290,6.0,13.0,14,0.00,,---,0.00,VWS V14.01,2013-08-12 22:13:00,
2013-08-12 15:18:00,93.0,35.0,29.95,West,259,7.0,14.0,13,0.00,,---,0.00,VWS V14.01,2013-08-12 22:18:00,
2013-08-12 15:23:00,92.9,36.7,29.95,WNW,302,8.0,14.0,14,0.00,,---,0.00,VWS V14.01,2013-08-12 22:23:00,
2013-08-12 15:28:00,92.9,34.9,29.95,WNW,302,12.0,13.0,13,0.00,,---,0.00,VWS V14.01,2013-08-12 22:28:00,
2013-08-12 15:30:00,92.9,36.7,29.95,WNW,294,7.0,14.0,14,0.00,,---,0.00,VWS V14.01,2013-08-12 22:30:00,
2013-08-12 15:33:00,92.3,38.0,29.96,West,269,5.0,16.0,15,0.00,,---,0.00,VWS V14.01,2013-08-12 22:33:00,
2013-08-12 15:38:00,92.8,36.7,29.95,WNW,302,10.0,17.0,14,0.00,,---,0.00,VWS V14.01,2013-08-12 22:38:00,
2013-08-12 15:43:00,92.9,38.5,29.95,WNW,288,6.0,17.0,15,0.00,,---,0.00,VWS V14.01,2013-08-12 22:43:00,
2013-08-12 15:48:00,92.8,34.8,29.95,WNW,293,6.0,18.0,13,0.00,,---,0.00,VWS V14.01,2013-08-12 22:48:00,
2013-08-12 15:53:00,92.5,38.2,29.95,WNW,288,11.0,18.0,15,0.00,,---,0.00,VWS V14.01,2013-08-12 22:53:00,
2013-08-12 15:58:00,92.4,38.1,29.95,NW,308,9.0,12.0,15,0.00,,---,0.00,VWS V14.01,2013-08-12 22:58:00,
2013-08-12 16:00:00,92.6,38.3,29.95,NW,307,15.0,18.0,15,0.00,,---,0.00,VWS V14.01,2013-08-12 23:00:00,
2013-08-12 16:03:00,91.8,37.6,29.95,West,277,7.0,18.0,15,0.00,,---,0.00,VWS V14.01,2013-08-12 23:03:00,
2013-08-12 16:08:00,91.7,39.2,29.95,WSW,253,11.0,18.0,16,0.00,,---,0.00,VWS V14.01,2013-08-12 23:08:00,
2013-08-12 16:13:00,92.0,37.8,29.95,West,277,7.0,18.0,15,0.00,,---,0.00,VWS V14.01,2013-08-12 23:13:00,
2013-08-12 16:18:00,92.0,39.4,29.95,West,270,12.0,19.0,16,0.00,,---,0.00,VWS V14.01,2013-08-12 23:18:00,
2013-08-12 16:23:00,91.8,39.3,29.95,NW,308,7.0,19.0,16,0.00,,---,0.00,VWS V14.01,2013-08-12 23:23:00,
2013-08-12 16:28:00,91.5,37.4,29.95,NNW,328,13.0,13.0,15,0.00,,---,0.00,VWS V14.01,2013-08-12 23:28:00,
2013-08-12 16:30:00,91.5,37.4,29.95,WNW,302,10.0,19.0,15,0.00,,---,0.00,VWS V14.01,2013-08-12 23:30:00,
2013-08-12 16:33:00,91.6,35.7,29.95,NW,308,11.0,19.0,14,0.00,,---,0.00,VWS V14.01,2013-08-12 23:33:00,
2013-08-12 16:38:00,91.3,37.2,29.95,WNW,297,10.0,19.0,15,0.00,,---,0.00,VWS V14.01,2013-08-12 23:38:00,
2013-08-12 16:43:00,91.3,37.2,29.95,West,271,11.0,19.0,15,0.00,,---,0.00,VWS V14.01,2013-08-12 23:43:00,
2013-08-12 16:48:00,91.1,37.1,29.95,WNW,290,14.0,19.0,15,0.00,,---,0.00,VWS V14.01,2013-08-12 23:48:00,
2013-08-12 16:53:00,91.1,40.3,29.95,WNW,283,11.0,19.0,17,0.00,,---,0.00,VWS V14.01,2013-08-12 23:53:00,
2013-08-12 16:58:00,90.6,39.9,29.95,NW,309,8.0,12.0,17,0.00,,---,0.00,VWS V14.01,2013-08-12 23:58:00,
2013-08-12 17:00:00,90.7,39.9,29.95,NW,315,8.0,19.0,17,0.00,,---,0.00,VWS V14.01,2013-08-13 00:00:00,
2013-08-12 17:03:00,90.4,36.5,29.95,WNW,287,11.0,14.0,15,0.00,,---,0.00,VWS V14.01,2013-08-13 00:03:00,
2013-08-12 17:08:00,90.1,39.5,29.95,WNW,284,6.0,14.0,17,0.00,,---,0.00,VWS V14.01,2013-08-13 00:08:00,
2013-08-12 17:13:00,90.2,39.5,29.95,NW,309,11.0,16.0,17,0.00,,---,0.00,VWS V14.01,2013-08-13 00:13:00,
2013-08-12 17:18:00,90.1,40.9,29.95,NW,314,8.0,16.0,18,0.00,,---,0.00,VWS V14.01,2013-08-13 00:18:00,
2013-08-12 17:23:00,89.4,41.8,29.95,WNW,293,12.0,17.0,19,0.00,,---,0.00,VWS V14.01,2013-08-13 00:23:00,
2013-08-12 17:28:00,89.0,40.0,29.95,NW,307,12.0,12.0,18,0.00,,---,0.00,VWS V14.01,2013-08-13 00:28:00,
2013-08-12 17:30:00,89.0,40.0,29.95,WNW,284,10.0,17.0,18,0.00,,---,0.00,VWS V14.01,2013-08-13 00:30:00,
2013-08-12 17:33:00,88.8,41.3,29.95,WNW,287,7.0,16.0,19,0.00,,---,0.00,VWS V14.01,2013-08-13 00:33:00,
2013-08-12 17:38:00,88.8,42.6,29.95,West,276,11.0,16.0,20,0.00,,---,0.00,VWS V14.01,2013-08-13 00:38:00,
2013-08-12 17:43:00,88.5,41.0,29.95,WSW,242,4.0,16.0,19,0.00,,---,0.00,VWS V14.01,2013-08-13 00:43:00,
2013-08-12 17:48:00,88.3,42.2,29.95,WNW,302,13.0,16.0,20,0.00,,---,0.00,VWS V14.01,2013-08-13 00:48:00,
2013-08-12 17:53:00,87.8,41.8,29.95,WNW,284,8.0,16.0,20,0.00,,---,0.00,VWS V14.01,2013-08-13 00:53:00,
2013-08-12 17:58:00,87.6,41.6,29.95,NW,308,5.0,8.0,20,0.00,,---,0.00,VWS V14.01,2013-08-13 00:58:00,
2013-08-12 18:00:00,87.6,41.6,29.95,West,259,5.0,16.0,20,0.00,,---,0.00,VWS V14.01,2013-08-13 01:00:00,
2013-08-12 18:03:00,87.5,41.5,29.95,NW,314,8.0,13.0,20,0.00,,---,0.00,VWS V14.01,2013-08-13 01:03:00,
2013-08-12 18:08:00,87.2,41.3,29.95,NW,326,6.0,13.0,20,0.00,,---,0.00,VWS V14.01,2013-08-13 01:08:00,
2013-08-12 18:13:00,87.0,43.6,29.95,WSW,237,11.0,13.0,22,0.00,,---,0.00,VWS V14.01,2013-08-13 01:13:00,
2013-08-12 18:18:00,86.5,43.2,29.95,WNW,283,5.0,16.0,22,0.00,,---,0.00,VWS V14.01,2013-08-13 01:18:00,
2013-08-12 18:23:00,86.1,42.8,29.95,WSW,253,9.0,16.0,22,0.00,,---,0.00,VWS V14.01,2013-08-13 01:23:00,
2013-08-12 18:28:00,85.7,43.7,29.95,WNW,284,8.0,10.0,23,0.00,,---,0.00,VWS V14.01,2013-08-13 01:28:00,
2013-08-12 18:30:00,85.7,43.7,29.95,West,259,6.0,16.0,23,0.00,,---,0.00,VWS V14.01,2013-08-13 01:30:00,
2013-08-12 18:33:00,85.1,44.3,29.95,WSW,250,5.0,13.0,24,0.00,,---,0.00,VWS V14.01,2013-08-13 01:33:00,
2013-08-12 18:38:00,84.7,44.0,29.95,West,274,7.0,14.0,24,0.00,,---,0.00,VWS V14.01,2013-08-13 01:38:00,
2013-08-12 18:43:00,84.5,42.7,29.95,WNW,300,9.0,14.0,23,0.00,,---,0.00,VWS V14.01,2013-08-13 01:43:00,
2013-08-12 18:48:00,84.3,43.6,29.95,West,263,4.0,15.0,24,0.00,,---,0.00,VWS V14.01,2013-08-13 01:48:00,
2013-08-12 18:53:00,83.9,44.3,29.96,WNW,294,5.0,15.0,25,0.00,,---,0.00,VWS V14.01,2013-08-13 01:53:00,
2013-08-12 18:58:00,83.7,42.0,29.96,NW,312,4.0,8.0,23,0.00,,---,0.00,VWS V14.01,2013-08-13 01:58:00,
2013-08-12 19:00:00,83.7,42.0,29.96,West,271,4.0,15.0,23,0.00,,---,0.00,VWS V14.01,2013-08-13 02:00:00,
2013-08-12 19:03:00,83.3,42.8,29.96,NW,305,4.0,12.0,24,0.00,,---,0.00,VWS V14.01,2013-08-13 02:03:00,
2013-08-12 19:08:00,83.1,42.6,29.96,West,281,3.0,12.0,24,0.00,,---,0.00,VWS V14.01,2013-08-13 02:08:00,
2013-08-12 19:13:00,82.7,43.3,29.96,WSW,242,8.0,12.0,25,0.00,,---,0.00,VWS V14.01,2013-08-13 02:13:00,
2013-08-12 19:18:00,81.8,45.5,29.96,WNW,293,4.0,12.0,28,0.00,,---,0.00,VWS V14.01,2013-08-13 02:18:00,
2013-08-12 19:23:00,80.8,46.5,29.96,WSW,257,5.0,12.0,30,0.00,,---,0.00,VWS V14.01,2013-08-13 02:23:00,
2013-08-12 19:28:00,80.0,45.8,29.96,WSW,240,4.0,10.0,30,0.00,,---,0.00,VWS V14.01,2013-08-13 02:28:00,
2013-08-12 19:30:00,80.1,45.0,29.96,West,263,6.0,12.0,29,0.00,,---,0.00,VWS V14.01,2013-08-13 02:30:00,
2013-08-12 19:33:00,79.5,45.4,29.96,NW,321,4.0,10.0,30,0.00,,---,0.00,VWS V14.01,2013-08-13 02:33:00,
2013-08-12 19:38:00,79.1,45.9,29.97,WSW,240,6.0,11.0,31,0.00,,---,0.00,VWS V14.01,2013-08-13 02:38:00,
2013-08-12 19:43:00,78.7,46.4,29.96,West,268,4.0,11.0,32,0.00,,---,0.00,VWS V14.01,2013-08-13 02:43:00,
2013-08-12 19:48:00,78.4,45.3,29.97,WNW,293,4.0,11.0,31,0.00,,---,0.00,VWS V14.01,2013-08-13 02:48:00,
2013-08-12 19:53:00,78.3,45.2,29.97,WSW,251,3.0,11.0,31,0.00,,---,0.00,VWS V14.01,2013-08-13 02:53:00,
2013-08-12 19:58:00,78.1,44.2,29.97,WSW,240,6.0,10.0,30,0.00,,---,0.00,VWS V14.01,2013-08-13 02:58:00,
2013-08-12 20:00:00,78.1,45.0,29.97,WSW,257,9.0,11.0,31,0.00,,---,0.00,VWS V14.01,2013-08-13 03:00:00,
2013-08-12 20:03:00,78.1,45.0,29.97,West,270,10.0,14.0,31,0.00,,---,0.00,VWS V14.01,2013-08-13 03:03:00,
2013-08-12 20:08:00,78.1,43.3,29.97,WSW,240,7.0,14.0,29,0.00,,---,0.00,VWS V14.01,2013-08-13 03:08:00,
2013-08-12 20:13:00,78.2,43.4,29.98,WNW,290,9.0,16.0,29,0.00,,---,0.00,VWS V14.01,2013-08-13 03:13:00,
2013-08-12 20:18:00,77.8,43.9,29.98,SW,232,5.0,16.0,30,0.00,,---,0.00,VWS V14.01,2013-08-13 03:18:00,
2013-08-12 20:23:00,77.7,44.7,29.98,West,264,10.0,16.0,31,0.00,,---,0.00,VWS V14.01,2013-08-13 03:23:00,
2013-08-12 20:28:00,77.7,42.9,29.98,WNW,284,5.0,11.0,29,0.00,,---,0.00,VWS V14.01,2013-08-13 03:28:00,
2013-08-12 20:30:00,77.7,42.9,29.98,West,267,10.0,16.0,29,0.00,,---,0.00,VWS V14.01,2013-08-13 03:30:00,
2013-08-12 20:33:00,77.8,43.0,29.98,WNW,302,9.0,17.0,29,0.00,,---,0.00,VWS V14.01,2013-08-13 03:33:00,
2013-08-12 20:38:00,77.7,42.0,29.98,West,270,13.0,17.0,28,0.00,,---,0.00,VWS V14.01,2013-08-13 03:38:00,
2013-08-12 20:43:00,77.7,43.8,29.99,WNW,293,14.0,17.0,30,0.00,,---,0.00,VWS V14.01,2013-08-13 03:43:00,
2013-08-12 20:48:00,77.6,42.0,29.99,West,276,5.0,17.0,28,0.00,,---,0.00,VWS V14.01,2013-08-13 03:48:00,
2013-08-12 20:53:00,77.5,42.8,29.99,NW,318,9.0,17.0,29,0.00,,---,0.00,VWS V14.01,2013-08-13 03:53:00,
2013-08-12 20:58:00,77.5,42.8,29.99,NNW,328,3.0,11.0,29,0.00,,---,0.00,VWS V14.01,2013-08-13 03:58:00,
2013-08-12 21:00:00,77.5,42.8,29.99,West,267,11.0,17.0,29,0.00,,---,0.00,VWS V14.01,2013-08-13 04:00:00,
2013-08-12 21:01:00,77.4,44.4,29.99,WSW,248,16.0,17.0,31,0.00,,---,0.00,VWS V14.01,2013-08-13 04:01:00,
2013-08-12 21:06:00,77.6,43.7,29.99,NW,308,7.0,18.0,30,0.00,,---,0.00,VWS V14.01,2013-08-13 04:06:00,
2013-08-12 21:11:00,77.2,43.4,29.99,West,264,7.0,18.0,30,0.00,,---,0.00,VWS V14.01,2013-08-13 04:11:00,
2013-08-12 21:16:00,77.0,44.1,29.99,WNW,283,8.0,18.0,31,0.00,,---,0.00,VWS V14.01,2013-08-13 04:16:00,
2013-08-12 21:21:00,77.1,42.4,30.00,WNW,283,6.0,18.0,29,0.00,,---,0.00,VWS V14.01,2013-08-13 04:21:00,
2013-08-12 21:26:00,77.0,43.2,30.00,WNW,285,8.0,18.0,30,0.00,,---,0.00,VWS V14.01,2013-08-13 04:26:00,
2013-08-12 21:30:00,77.0,44.1,30.00,West,274,5.0,18.0,31,0.00,,---,0.00,VWS V14.01,2013-08-13 04:30:00,
2013-08-12 21:31:00,76.7,41.2,29.99,WSW,250,10.0,18.0,28,0.00,,---,0.00,VWS V14.01,2013-08-13 04:31:00,
2013-08-12 21:36:00,76.9,42.3,30.00,West,261,5.0,18.0,29,0.00,,---,0.00,VWS V14.01,2013-08-13 04:36:00,
2013-08-12 21:41:00,76.8,43.9,30.00,WNW,289,9.0,18.0,31,0.00,,---,0.00,VWS V14.01,2013-08-13 04:41:00,
2013-08-12 21:46:00,76.6,43.7,30.00,WNW,297,6.0,18.0,31,0.00,,---,0.00,VWS V14.01,2013-08-13 04:46:00,
2013-08-12 21:51:00,76.7,43.8,30.00,WNW,290,3.0,18.0,31,0.00,,---,0.00,VWS V14.01,2013-08-13 04:51:00,
2013-08-12 21:56:00,76.6,44.6,30.00,West,280,4.0,18.0,32,0.00,,---,0.00,VWS V14.01,2013-08-13 04:56:00,
2013-08-12 22:00:00,76.5,44.5,30.00,NW,312,7.0,18.0,32,0.00,,---,0.00,VWS V14.01,2013-08-13 05:00:00,
2013-08-12 22:01:00,76.4,43.6,30.00,West,262,6.0,12.0,31,0.00,,---,0.00,VWS V14.01,2013-08-13 05:01:00,
2013-08-12 22:06:00,76.4,43.6,30.00,SW,215,6.0,15.0,31,0.00,,---,0.00,VWS V14.01,2013-08-13 05:06:00,
2013-08-12 22:11:00,76.3,43.5,30.00,SW,217,3.0,15.0,31,0.00,,---,0.00,VWS V14.01,2013-08-13 05:11:00,
2013-08-12 22:16:00,76.3,43.5,30.00,WNW,283,4.0,15.0,31,0.00,,---,0.00,VWS V14.01,2013-08-13 05:16:00,
2013-08-12 22:21:00,76.4,43.6,30.00,WNW,295,11.0,15.0,31,0.00,,---,0.00,VWS V14.01,2013-08-13 05:21:00,
2013-08-12 22:26:00,76.3,44.3,30.00,WSW,254,5.0,15.0,32,0.00,,---,0.00,VWS V14.01,2013-08-13 05:26:00,
2013-08-12 22:30:00,76.1,44.1,30.00,SW,231,7.0,15.0,32,0.00,,---,0.00,VWS V14.01,2013-08-13 05:30:00,
2013-08-12 22:31:00,75.9,44.8,30.00,NW,308,7.0,13.0,33,0.00,,---,0.00,VWS V14.01,2013-08-13 05:31:00,
2013-08-12 22:36:00,75.7,44.6,30.00,West,279,6.0,13.0,33,0.00,,---,0.00,VWS V14.01,2013-08-13 05:36:00,
2013-08-12 22:41:00,75.7,44.6,30.00,WNW,290,6.0,13.0,33,0.00,,---,0.00,VWS V14.01,2013-08-13 05:41:00,
2013-08-12 22:46:00,75.6,45.3,30.00,WNW,300,6.0,13.0,34,0.00,,---,0.00,VWS V14.01,2013-08-13 05:46:00,
2013-08-12 22:51:00,75.9,44.8,30.00,WSW,257,7.0,13.0,33,0.00,,---,0.00,VWS V14.01,2013-08-13 05:51:00,
2013-08-12 22:56:00,75.8,44.7,30.00,WNW,293,4.0,13.0,33,0.00,,---,0.00,VWS V14.01,2013-08-13 05:56:00,
2013-08-12 23:00:00,75.8,43.9,30.00,West,264,13.0,14.0,32,0.00,,---,0.00,VWS V14.01,2013-08-13 06:00:00,
2013-08-12 23:01:00,76.0,44.8,30.00,West,269,9.0,15.0,33,0.00,,---,0.00,VWS V14.01,2013-08-13 06:01:00,
2013-08-12 23:06:00,75.9,44.8,30.00,West,273,14.0,15.0,33,0.00,,---,0.00,VWS V14.01,2013-08-13 06:06:00,
2013-08-12 23:11:00,75.9,44.8,30.00,NW,305,10.0,15.0,33,0.00,,---,0.00,VWS V14.01,2013-08-13 06:11:00,
2013-08-12 23:16:00,76.0,44.0,30.00,West,277,4.0,15.0,32,0.00,,---,0.00,VWS V14.01,2013-08-13 06:16:00,
2013-08-12 23:21:00,76.1,44.1,30.00,NW,304,5.0,15.0,32,0.00,,---,0.00,VWS V14.01,2013-08-13 06:21:00,
2013-08-12 23:26:00,76.0,44.0,30.00,WNW,283,10.0,16.0,32,0.00,,---,0.00,VWS V14.01,2013-08-13 06:26:00,
2013-08-12 23:30:00,76.1,42.5,29.99,WNW,291,8.0,16.0,30,0.00,,---,0.00,VWS V14.01,2013-08-13 06:30:00,
2013-08-12 23:31:00,76.2,43.4,30.00,NW,315,6.0,12.0,31,0.00,,---,0.00,VWS V14.01,2013-08-13 06:31:00,
2013-08-12 23:36:00,76.0,44.0,29.99,West,264,5.0,14.0,32,0.00,,---,0.00,VWS V14.01,2013-08-13 06:36:00,
2013-08-12 23:41:00,76.0,44.0,29.99,West,280,6.0,14.0,32,0.00,,---,0.00,VWS V14.01,2013-08-13 06:41:00,
2013-08-12 23:46:00,75.8,43.0,30.00,WSW,249,8.0,15.0,31,0.00,,---,0.00,VWS V14.01,2013-08-13 06:46:00,
2013-08-12 23:51:00,75.7,43.8,29.99,NNW,333,5.0,15.0,32,0.00,,---,0.00,VWS V14.01,2013-08-13 06:51:00,
2013-08-12 23:56:00,75.9,44.0,30.00,West,267,10.0,15.0,32,0.00,,---,0.00,VWS V14.01,2013-08-13 06:56:00,